Regional Weather Roundup
Issued by NWS Huntsville, AL

Home | Current Version | Previous Version | Text Only | Print | Product List | Glossary On
Versions: 1 2 3 4 5 6 7 8 9 10 11 12 13 14 15 16 17 18 19 20 21 22 23 24 25 26 27 28 29 30 31 32 33 34 35 36 37 38 39 40 41 42 43 44 45 46 47 48 49 50
000
ASUS44 KHUN 291110
RWRHUN

WEATHER ROUNDUP FOR THE TENNESSEE VALLEY
NATIONAL WEATHER SERVICE HUNTSVILLE AL
600 AM CDT FRI JUL 29 2016

ALZ001>004-291200-
NORTHWEST ALABAMA

CITY           SKY/WX    TMP DP  RH WIND       PRES   REMARKS
SHOALS AIRPORT CLOUDY    75  72  90 SW3       30.01R
SHOALS TVA RES   N/A     73 N/A N/A MISG        N/A
$$

ALZ005>007-016-291200-
NORTH CENTRAL ALABAMA

CITY           SKY/WX    TMP DP  RH WIND       PRES   REMARKS
CULLMAN AG STN   N/A     73 N/A N/A CALM        N/A
DECATUR AP     CLOUDY    74  72  93 SW3       30.01R
HUNTSVILLE AP  CLOUDY    74  70  87 CALM      30.01R
HUN NWS/UAH      N/A     74  71  90 S3          N/A
MERIDIANVILLE  CLOUDY    73  68  83 CALM      30.01S
REDSTONE ARSN  CLOUDY    73  72  97 SW5       30.01R
VINEMONT AP    PTSUNNY   72  71  96 CALM      30.05R
$$

ALZ008>010-291200-
NORTHEAST ALABAMA

CITY           SKY/WX    TMP DP  RH WIND       PRES   REMARKS
ALBERTVILLE    CLOUDY    73  73 100 CALM      30.03R FOG
FORT PAYNE     CLOUDY    72  70  94 CALM      30.02R FOG
SCOTTSBORO AP  CLOUDY    73  73 100 CALM      30.02R
SCOTTSBORO HCN   N/A     73 N/A N/A MISG        N/A
VALLEY HEAD      N/A     72 N/A N/A MISG        N/A
$$

TNZ076-096-097-291200-
SOUTHEASTERN MIDDLE TENNESSEE

CITY           SKY/WX    TMP DP  RH WIND       PRES   REMARKS
TULLAHOMA      CLOUDY    72  72 100 SW3       30.03R
WINCHESTER     CLOUDY    73  72  94 W3        30.02S
$$

...SURROUNDING SITES...

CITY           SKY/WX    TMP DP  RH WIND       PRES   REMARKS
ATLANTA        MOCLDY    73  71  93 CALM      30.04R
ANNISTON       PTCLDY    71  69  93 CALM      30.03R
BIRMINGHAM     LGT RAIN  76  73  91 SW7       30.05R
CHATTANOOGA    MOCLDY    76  71  85 S7        30.01R
DALTON         CLOUDY    72  72 100 CALM      30.02R
GADSDEN        PTCLDY    73  73 100 CALM        N/A
GOLDEN TRNGL   PTCLDY    75  68  78 SW5       29.99S
HALEYVILLE     CLOUDY    72  71  97 SW5       30.05R
JACKSON TN     CLOUDY    75  75 100 S6        29.96R
MEMPHIS        CLOUDY    77  72  84 SW7       29.96S
NASHVILLE      CLOUDY    77  73  87 CALM      29.97S
OXFORD MS      CLOUDY    73  70  88 SW8       30.01R
ROME           CLOUDY    74  72  93 SW3       30.01R
SAVANNAH       CLOUDY    77  73  88 SW7       29.97S
TUPELO         CLOUDY    75  71  87 SW5       30.00R
TUSCALOOSA     CLOUDY    74  74 100 S3        30.02R
$$

...GULF COAST WEATHER...

CITY           SKY/WX    TMP DP  RH WIND       PRES   REMARKS
GULFPORT       CLEAR     75  73  93 N3        30.01S
PASCAGOULA     CLEAR     73  73 100 CALM      30.02R
MOBILE         PTCLDY    74  73  97 CALM      30.03S
GULF SHORES    MOSUNNY   75  75 100 CALM      30.02R
PENSACOLA      PTCLDY    77  75  93 CALM      30.01S
DESTIN         PTCLDY    86  77  74 CALM      30.02R HX  97
PANAMA CITY    CLEAR     82  74  76 W3        30.02S
APPALACHICOLA  CLEAR     77  76  96 CALM      30.02S
$$




USA.gov is the U.S. government's official web portal to all federal, state and local government web resources and services.